BRADLEY Weather Reports


Display with metric or nautical units.
time (UTC)temp
F
wind
direction
speed
MPH
gust
MPH
rain 1hr
in
rain 24hr
in
rain mn
in
humidity
%
barometer
mb
20260506222002 52 360 2.0 6.0 0.00 0.00 0.00 51
20260506221003 52 360 0.0 4.0 0.00 0.00 0.00 51
20260506220004 53 360 1.0 3.0 0.00 0.00 0.00 51
20260506215003 52 360 1.0 3.0 0.00 0.00 0.00 51
20260506214002 52 360 1.0 4.0 0.00 0.00 0.00 51
20260506213003 52 360 0.0 3.0 0.00 0.00 0.00 51
20260506212003 52 360 1.0 3.0 0.00 0.00 0.00 51
20260506211003 53 360 2.0 4.0 0.00 0.00 0.00 51
20260506210004 53 360 1.0 4.0 0.00 0.00 0.00 51
20260506205003 54 360 2.0 5.0 0.00 0.00 0.00 52
20260506204004 54 360 2.0 5.0 0.00 0.00 0.00 52
20260506203002 53 265 0.0 4.0 0.00 0.00 0.00 51
20260506202003 54 360 1.0 4.0 0.00 0.00 0.00 52
20260506201003 53 360 1.0 3.0 0.00 0.00 0.00 51
20260506200003 53 360 0.0 2.0 0.00 0.00 0.00 51
20260506195003 53 360 1.0 3.0 0.00 0.00 0.00 51
20260506194003 53 360 1.0 2.0 0.00 0.00 0.00 51
20260506193002 53 360 0.0 2.0 0.00 0.00 0.00 51
20260506192002 53 360 0.0 2.0 0.00 0.00 0.00 51
20260506191003 53 360 0.0 3.0 0.00 0.00 0.00 51
20260506190004 53 360 0.0 4.0 0.00 0.00 0.00 51
20260506185003 53 0 0.0 2.0 0.00 0.00 0.00 51
20260506184003 53 360 1.0 2.0 0.00 0.00 0.00 51
20260506183004 52 360 0.0 3.0 0.00 0.00 0.00 51
20260506182007 53 360 1.0 4.0 0.00 0.00 0.00 51
20260506181004 52 360 0.0 4.0 0.00 0.00 0.00 51
20260506180004 52 360 0.0 2.0 0.00 0.00 0.00 51
20260506175003 52 360 1.0 4.0 0.00 0.00 0.00 51
20260506174003 52 360 0.0 2.0 0.00 0.00 0.00 51
20260506173003 53 360 1.0 3.0 0.00 0.00 0.00 51
20260506172003 53 360 1.0 3.0 0.00 0.00 0.00 51
20260506171002 53 360 1.0 5.0 0.00 0.00 0.00 51
20260506170003 53 360 1.0 4.0 0.00 0.00 0.00 51
20260506165003 52 220 0.0 4.0 0.00 0.00 0.00 51
20260506164003 52 360 0.0 2.0 0.00 0.00 0.00 51
20260506163003 52 360 0.0 3.0 0.00 0.00 0.00 51
20260506162003 52 0 0.0 0.0 0.00 0.00 0.00 51
20260506161002 52 0 0.0 0.0 0.00 0.00 0.00 51
20260506160003 51 0 0.0 1.0 0.00 0.00 0.00 51
20260506155003 52 360 0.0 3.0 0.00 0.00 0.00 51
20260506154003 52 360 0.0 2.0 0.00 0.00 0.00 51
20260506153003 51 360 0.0 2.0 0.00 0.00 0.00 50
20260506152003 51 0 0.0 0.0 0.00 0.00 0.00 50
20260506151003 51 0 0.0 0.0 0.00 0.00 0.00 50
20260506150003 51 360 0.0 2.0 0.00 0.00 0.00 50
20260506145002 51 360 1.0 2.0 0.00 0.00 0.00 50
20260506144003 51 110 0.0 1.0 0.00 0.00 0.00 50
20260506143003 51 0 0.0 0.0 0.00 0.00 0.00 50
20260506142003 51 0 0.0 0.0 0.00 0.00 0.00 50
20260506141003 50 0 0.0 4.0 0.00 0.00 0.00 50
20260506140003 50 0 0.0 0.0 0.00 0.00 0.00 50
20260506135003 50 360 0.0 1.0 0.00 0.00 0.00 50
20260506134003 50 360 0.0 1.0 0.00 0.00 0.00 50
20260506133003 50 360 0.0 2.0 0.00 0.00 0.00 50
20260506132003 50 360 0.0 2.0 0.00 0.00 0.00 50
20260506131003 50 360 0.0 1.0 0.00 0.00 0.00 50
20260506130003 50 360 0.0 0.0 0.00 0.00 0.00 50
20260506125002 50 360 0.0 1.0 0.00 0.00 0.00 50
20260506124002 50 360 0.0 1.0 0.00 0.00 0.00 50
20260506123003 50 360 0.0 1.0 0.00 0.00 0.00 50
20260506122003 50 0 0.0 1.0 0.00 0.00 0.00 50
20260506121003 50 360 0.0 1.0 0.00 0.00 0.00 50
20260506120004 50 360 0.0 1.0 0.00 0.00 0.00 50
20260506115003 50 360 0.0 1.0 0.00 0.00 0.00 50
20260506114003 50 360 0.0 0.0 0.00 0.00 0.00 50
20260506113019 50 0 0.0 1.0 0.00 0.00 0.00 50
20260506112002 50 0 0.0 0.0 0.00 0.00 0.00 50
20260506111002 51 360 0.0 1.0 0.00 0.00 0.00 50
20260506110003 51 0 0.0 1.0 0.00 0.00 0.00 50
20260506105003 50 0 0.0 1.0 0.00 0.00 0.00 50
20260506104003 50 360 0.0 2.0 0.00 0.00 0.00 50
20260506103004 50 360 0.0 1.0 0.00 0.00 0.00 50
20260506102002 51 360 0.0 1.0 0.00 0.00 0.00 50
20260506101002 51 0 0.0 1.0 0.00 0.00 0.00 50
20260506100009 51 360 0.0 1.0 0.00 0.00 0.00 50
20260506095003 51 360 0.0 1.0 0.00 0.00 0.00 50
20260506094003 51 210 0.0 1.0 0.00 0.00 0.00 50
20260506093004 51 360 0.0 1.0 0.00 0.00 0.00 50
20260506092002 51 360 0.0 1.0 0.00 0.00 0.00 50
20260506091002 51 360 0.0 1.0 0.00 0.00 0.00 50
20260506090003 51 0 0.0 1.0 0.00 0.00 0.00 50
20260506085003 51 360 0.0 2.0 0.00 0.00 0.00 50
20260506084003 51 360 0.0 1.0 0.00 0.00 0.00 50
20260506083003 51 360 0.0 1.0 0.00 0.00 0.00 50
20260506082002 51 360 0.0 1.0 0.00 0.00 0.00 50
20260506081002 51 360 0.0 1.0 0.00 0.00 0.00 50
20260506073003 51 360 0.0 1.0 0.00 0.00 0.00 50
20260506072003 51 0 0.0 1.0 0.00 0.00 0.00 50
20260506071003 51 360 0.0 1.0 0.00 0.00 0.00 50
20260506062003 52 360 1.0 2.0 0.00 0.00 0.00 51
20260506061003 52 360 0.0 1.0 0.00 0.00 0.00 51
20260506051003 52 360 0.0 2.0 0.00 0.00 0.00 51
20260506045003 53 360 0.0 2.0 0.00 0.00 0.00 51
20260506044002 53 360 0.0 2.0 0.00 0.00 0.00 51
20260506043003 53 360 1.0 2.0 0.00 0.00 0.00 51
20260506042002 53 360 0.0 3.0 0.00 0.00 0.00 51
20260506041003 53 360 1.0 2.0 0.00 0.00 0.00 51
20260506040004 53 360 1.0 2.0 0.00 0.00 0.00 51
20260506035003 53 360 1.0 2.0 0.00 0.00 0.00 51
20260506034003 53 360 1.0 2.0 0.00 0.00 0.00 51
20260506033002 53 360 1.0 2.0 0.00 0.00 0.00 51
20260506032003 53 360 1.0 2.0 0.00 0.00 0.00 51
20260506031003 53 360 1.0 2.0 0.00 0.00 0.00 51
20260506030004 54 360 1.0 3.0 0.00 0.00 0.00 52
20260506025003 54 360 1.0 2.0 0.00 0.00 0.00 52
20260506024003 54 360 1.0 2.0 0.00 0.00 0.00 52
20260506023004 55 360 1.0 4.0 0.00 0.00 0.00 52
20260506022002 55 360 1.0 5.0 0.00 0.00 0.00 52
20260506021002 56 360 2.0 5.0 0.00 0.00 0.00 53
20260506020003 56 360 1.0 2.0 0.00 0.00 0.00 53
20260506015003 56 360 2.0 3.0 0.00 0.00 0.00 53
20260506014003 56 360 1.0 3.0 0.00 0.00 0.00 53
20260506013004 57 360 1.0 3.0 0.00 0.00 0.00 53
20260506012002 57 360 1.0 4.0 0.00 0.00 0.00 54
20260506011002 57 360 0.0 3.0 0.00 0.00 0.00 53
20260506010003 57 360 2.0 5.0 0.00 0.00 0.00 53
20260506005003 58 360 1.0 5.0 0.00 0.00 0.00 54
20260506004003 58 360 1.0 7.0 0.00 0.00 0.00 54
20260506003003 57 360 1.0 5.0 0.00 0.00 0.00 53
20260506002003 57 360 1.0 5.0 0.00 0.00 0.00 53
20260506001007 58 360 1.0 5.0 0.00 0.00 0.00 54
20260506000003 58 360 2.0 7.0 0.00 0.00 0.00 54
20260505235003 56 360 2.0 4.0 0.00 0.00 0.00 53
20260505234003 56 360 2.0 4.0 0.00 0.00 0.00 53
20260505233003 57 360 1.0 4.0 0.00 0.00 0.00 53
20260505232002 56 360 0.0 2.0 0.00 0.00 0.00 53
20260505231002 57 360 1.0 3.0 0.00 0.00 0.00 53
20260505230003 57 360 1.0 3.0 0.00 0.00 0.00 53
20260505225003 56 360 1.0 4.0 0.00 0.00 0.00 53
20260505224003 56 360 1.0 2.0 0.00 0.00 0.00 53
20260505223003 56 360 1.0 2.0 0.00 0.00 0.00 53